Location: Alafon
(8.4500°N, 4.2333°E)
Time: 01:53:46
(UTC+00:00)

Nadezhda 2 Rocket - Pass Details

Date: 05 July 2020
Orbit: 948 x 1011 km, 83.0° (Epoch: 06 August)

Event Time Altitude Azimuth Distance (km) Brightness Sun altitude
Rises 19:07:04 0° 177° (S) 3,633 7.2 -14.6°
Reaches altitude 10° 19:09:35 10° 174° (S) 2,695 6.5 -15.2°
Maximum altitude 19:15:41 66° 92° (E) 1,058 4.4 -16.5°
Drops below altitude 10° 19:21:52 10° 12° (NNE) 2,735 7.0 -17.9°
Sets 19:24:25 0° 9° (N) 3,691 7.8 -18.5°
